Погода в Белобородовом

Россия / Новосибирская область     55°03′50″N   82°03′03″E
темп.,
°C
ветер,
м/с
пор.,
м/с
влажн.,
%
обл.,
%
осадки,
мм/ч
давл.,
гПа
погр.,
м
5 декабря, вс
вс501:00−5юз51093100 0.2 1029355
04:00−4ююз5994100 0.1 1029323
07:00−4ююз51094100 0.1 1028329
10:00−4ююз61294100 0.0 1026392
13:00−4ююз6139469 0.0 1025382
16:00−2ююз61394100 0.0 1022426
19:00−1юз6139498 0.0 1021402
22:00−1юз6159282 0.0 1021391
6 декабря, пн
пн601:00−2юз7159188 0.0 1020374
04:00−2юз7159071 0.0 1020372
07:00−2юз61490100 0.0 1019323
10:00−4юз51291100 0.0 1020258
13:00−3юз4109094 0.0 1019268
16:00−5ююз3792100 0.0 1018117
19:00−8ююз4992100 0.0 1018130
22:00−7ююз41091100 0.0 1016200
7 декабря, вт
вт701:00−4ююз51293100 0.1 1014357
04:00−3юз51296100 1.1 1013449
07:00−3юз61392100 1.4 1013553
10:00−4зюз71294100 0.3 1014593
13:00−5зюз71293100 0.4 1017618
16:00−7зсз7119298 0.2 1020648
19:00−11зсз61192100 0.3 1025421
22:00−15з5109590 0.0 1030241
8 декабря, ср
ср801:00−20з48997 0.0 1033116
04:00−23з48995 0.0 103589
07:00−25зюз36995 0.0 103677
10:00−25зюз37955 0.0 103891
13:00−20зюз48915 0.0 1037170
16:00−20зюз37925 0.0 1037124
19:00−23зюз38945 0.0 103998
22:00−24зюз37975 0.0 104080
9 декабря, чт
чт901:00−25зюз36995 0.0 104270
04:00−26юз36997 0.0 104362
07:00−25юз36995 0.0 104376
10:00−25ююз37995 0.0 1043101
13:00−20ююз41095100 0.0 1042237
16:00−17ююз51292100 0.0 1039331
19:00−15ююз61389100 0.0 1037400
22:00−13ююз71694100 1.1 1033531